DW9246 Weather Reports


Display with metric or nautical units.
time (UTC)temp
F
wind
direction
speed
MPH
gust
MPH
rain 1hr
in
rain 24hr
in
rain mn
in
humidity
%
barometer
mb
20260901063013 74 48 3.0 7.0 0.00 0.00 0.00 77 1021.1
20260901062012 73 30 3.0 5.0 0.00 0.00 0.00 78 1021.1
20260901061014 73 43 3.0 7.0 0.00 0.00 0.00 79 1021.0
20260901055013 72 38 2.0 5.0 0.00 0.00 0.00 80 1021.1
20260901054013 72 37 2.0 4.0 0.00 0.00 0.00 81 1021.4
20260901053013 72 28 2.0 4.0 0.00 0.00 0.00 81 1021.1
20260901052016 72 27 2.0 5.0 0.00 0.00 0.00 81 1021.1
20260901050016 72 50 3.0 5.0 0.00 0.00 0.00 81 1021.1
20260901045013 73 54 3.0 5.0 0.00 0.00 0.00 80 1021.0
20260901044015 73 50 3.0 5.0 0.00 0.00 0.00 80 1021.0
20260901043014 73 60 2.0 5.0 0.00 0.00 0.00 80 1021.0
20260901041012 74 66 3.0 5.0 0.00 0.00 0.00 80 1021.2
20260901035014 74 73 2.0 4.0 0.00 0.00 0.00 79 1021.1
20260901033014 74 80 2.0 4.0 0.00 0.00 0.00 80 1021.3
20260901032014 74 57 3.0 7.0 0.00 0.00 0.00 80 1021.3
20260901031012 74 74 2.0 4.0 0.00 0.00 0.00 80 1021.3
20260901030014 74 114 1.0 3.0 0.00 0.00 0.00 80 1021.5
20260901025014 74 114 1.0 4.0 0.00 0.00 0.00 80 1021.4
20260901024015 74 114 1.0 3.0 0.00 0.00 0.00 80 1021.6
20260901023012 74 114 1.0 4.0 0.00 0.00 0.00 80 1021.6
20260901022012 74 114 1.0 3.0 0.00 0.00 0.00 80 1021.6
20260901021013 74 118 1.0 3.0 0.00 0.00 0.00 80 1021.7
20260901020016 74 129 1.0 3.0 0.00 0.00 0.00 80 1021.7
20260901015013 74 123 2.0 6.0 0.00 0.00 0.00 80 1021.9
20260901014013 75 124 1.0 4.0 0.00 0.00 0.00 80 1021.9
20260901013014 75 125 2.0 5.0 0.00 0.00 0.00 80 1021.8
20260901012013 75 117 1.0 4.0 0.00 0.00 0.00 80 1021.9
20260901011012 75 116 1.0 6.0 0.00 0.00 0.00 81 1021.9
20260901010015 75 109 2.0 7.0 0.00 0.00 0.00 81 1021.9
20260901005013 74 105 1.0 3.0 0.00 0.00 0.00 81 1022.0
20260901004017 74 105 1.0 3.0 0.00 0.00 0.00 81 1022.2
20260901002012 74 105 1.0 3.0 0.00 0.00 0.00 81 1022.2
20260901001014 74 105 1.0 4.0 0.00 0.00 0.00 81 1022.1
20260901000021 74 105 1.0 3.0 0.00 0.00 0.00 81 1022.2
20260831235016 75 105 0.0 3.0 0.00 0.00 0.00 82 1022.2
20260831234017 75 105 0.0 2.0 0.00 0.00 0.00 82 1022.3
20260831233017 74 104 0.0 2.0 0.00 0.00 0.00 82 1022.2
20260831232023 74 104 2.0 4.0 0.00 0.00 0.00 82 1022.2
20260831231015 74 115 1.0 4.0 0.00 0.00 0.00 82 1022.3
20260831230018 74 123 0.0 1.0 0.00 0.00 0.00 82 1022.2
20260831225016 74 122 0.0 2.0 0.00 0.00 0.00 82 1022.1
20260831224020 74 123 1.0 3.0 0.00 0.00 0.00 82 1022.1
20260831223016 74 122 1.0 6.0 0.00 0.00 0.00 82 1022.0
20260831221024 75 91 2.0 5.0 0.00 0.00 0.00 82 1021.8
20260831220018 75 91 1.0 4.0 0.00 0.00 0.00 82 1021.8
20260831215019 75 91 2.0 4.0 0.00 0.00 0.00 82 1021.8
20260831214015 75 92 1.0 4.0 0.00 0.00 0.00 82 1021.7
20260831213019 75 92 2.0 3.0 0.00 0.00 0.00 82 1021.6
20260831212018 75 92 2.0 5.0 0.00 0.00 0.00 82 1021.4
20260831211018 75 92 2.0 4.0 0.00 0.00 0.00 82 1021.4
20260831210016 75 92 2.0 4.0 0.00 0.00 0.00 82 1021.3
20260831205016 75 92 2.0 4.0 0.00 0.00 0.00 82 1021.3
20260831204021 75 86 2.0 4.0 0.00 0.00 0.00 81 1021.2
20260831203016 76 90 2.0 4.0 0.00 0.00 0.00 81 1021.2
20260831202018 76 103 1.0 4.0 0.00 0.00 0.00 81 1021.2
20260831194016 76 125 0.0 2.0 0.00 0.00 0.00 81 1020.8
20260831193018 76 125 0.0 1.0 0.00 0.00 0.00 81 1020.6
20260831192017 76 125 0.0 2.0 0.00 0.00 0.00 80 1020.5
20260831191021 76 125 0.0 2.0 0.00 0.00 0.00 80 1020.3
20260831190018 76 125 1.0 3.0 0.00 0.00 0.00 80 1020.3
20260831184017 77 144 3.0 6.0 0.00 0.00 0.00 80 1020.1
20260831183016 77 145 3.0 7.0 0.00 0.00 0.00 79 1020.1
20260831182016 77 149 4.0 9.0 0.00 0.00 0.00 79 1020.1
20260831181016 77 150 4.0 10.0 0.00 0.00 0.00 79 1020.1
20260831180016 77 151 5.0 9.0 0.00 0.00 0.00 79 1020.1
20260831175015 78 148 4.0 9.0 0.00 0.00 0.00 79 1020.1
20260831174015 78 142 4.0 8.0 0.00 0.00 0.00 77 1020.1
20260831173017 78 152 4.0 8.0 0.00 0.00 0.00 78 1020.0
20260831172017 78 155 5.0 9.0 0.00 0.00 0.00 78 1020.1
20260831171015 78 152 6.0 11.0 0.00 0.00 0.00 77 1020.1
20260831170018 79 156 7.0 12.0 0.00 0.00 0.00 76 1020.1
20260831165016 80 154 7.0 13.0 0.00 0.00 0.00 75 1020.0
20260831164017 80 150 8.0 13.0 0.00 0.00 0.00 73 1020.1
20260831163016 81 184 6.0 13.0 0.00 0.00 0.00 74 1020.0
20260831162015 81 193 6.0 10.0 0.00 0.00 0.00 72 1020.0
20260831155015 80 197 6.0 12.0 0.00 0.00 0.00 73 1020.3
20260831154015 80 177 6.0 12.0 0.00 0.00 0.00 73 1020.3
20260831153016 80 193 7.0 12.0 0.00 0.00 0.00 73 1020.4
20260831152016 80 159 8.0 14.0 0.00 0.00 0.00 73 1020.5
20260831150018 80 157 8.0 14.0 0.00 0.00 0.00 74 1020.5
20260831145016 80 160 8.0 14.0 0.00 0.00 0.00 73 1020.5
20260831143016 81 204 5.0 13.0 0.00 0.00 0.00 71 1020.5
20260831142015 81 210 6.0 10.0 0.00 0.00 0.00 71 1020.5
20260831141017 81 182 7.0 14.0 0.00 0.00 0.00 72 1020.6
20260831140027 81 201 6.0 13.0 0.00 0.00 0.00 72 1020.6
20260831135017 80 165 7.0 12.0 0.00 0.00 0.00 75 1020.6
20260831134016 80 173 8.0 14.0 0.00 0.00 0.00 75 1020.7
20260831133018 81 171 8.0 16.0 0.00 0.00 0.00 74 1020.7
20260831131018 81 171 8.0 15.0 0.00 0.00 0.00 72 1020.6
20260831130019 82 167 8.0 15.0 0.00 0.00 0.00 70 1020.6
20260831125014 82 163 8.0 15.0 0.00 0.00 0.00 71 1020.7
20260831124016 81 151 8.0 14.0 0.00 0.00 0.00 71 1020.6
20260831122016 82 167 8.0 15.0 0.00 0.00 0.00 69 1020.6
20260831121015 82 167 8.0 15.0 0.00 0.00 0.00 68 1020.6
20260831120016 82 160 6.0 14.0 0.00 0.00 0.00 66 1020.7
20260831115015 82 167 7.0 13.0 0.00 0.00 0.00 67 1020.7
20260831113015 82 154 7.0 11.0 0.00 0.00 0.00 67 1020.8
20260831112016 81 177 8.0 15.0 0.00 0.00 0.00 66 1020.8
20260831110026 82 156 6.0 11.0 0.00 0.00 0.00 66 1020.8
20260831105014 82 147 6.0 12.0 0.00 0.00 0.00 68 1020.7
20260831103016 83 130 3.0 7.0 0.00 0.00 0.00 62 1020.7
20260831102017 82 140 5.0 12.0 0.00 0.00 0.00 63 1020.7
20260831101019 82 130 6.0 11.0 0.00 0.00 0.00 64 1020.7
20260831100018 82 116 4.0 11.0 0.00 0.00 0.00 64 1020.7
20260831095016 81 94 6.0 14.0 0.00 0.00 0.00 65 1020.6
20260831094018 81 99 4.0 12.0 0.00 0.00 0.00 65 1020.6
20260831092015 80 106 5.0 11.0 0.00 0.00 0.00 67 1020.5
20260831091016 80 120 5.0 11.0 0.00 0.00 0.00 67 1020.5
20260831085023 79 92 5.0 10.0 0.00 0.00 0.00 68 1020.5
20260831083014 78 109 3.0 9.0 0.00 0.00 0.00 70 1020.3
20260831082015 78 129 3.0 7.0 0.00 0.00 0.00 71 1020.3
20260831081022 77 108 3.0 10.0 0.00 0.00 0.00 72 1020.3
20260831080016 77 125 2.0 7.0 0.00 0.00 0.00 71 1020.2
20260831073015 74 255 2.0 4.0 0.00 0.00 0.00 71 1020.1
20260831072014 74 254 2.0 5.0 0.00 0.00 0.00 72 1020.0
20260831070016 73 48 2.0 4.0 0.00 0.00 0.00 75 1020.0
20260831065021 72 47 0.0 3.0 0.00 0.00 0.00 77 1020.0
20260831064018 71 0 0.0 0.0 0.00 0.00 0.00 78 1020.0